METEOR 1-14

Satellite information

Favourite Embed

Satellite Type and Status

PAYLOADIN ORBIT

Key statistics

Satellite METEOR 1-14 at a glance.

Uptime

19156

Days in orbit

Revolutions

≈ 14.1

Per day

Orbit

LEO

Low Earth Orbit

Inclination

81.2

Latest

Satellite identification and parameters

Extended collection of information and parameters for METEOR 1-14.

Object identification

Identified? True

Debris? False

Object name: METEOR 1-14

International designator: 1973-015A

Object number (NORAD): 6392

Object ID (CCSDS): 6392

Country: COMMONWEALTH OF INDEPENDENT STATES (CIS)

Current information (Y/N): Y

RCS size: LARGE

Orbital parameters

Period: 102.271 minutes

Inclination: 81.2341 deg

SMA: 7244.266 km

Apoapsis: 905.11 km

Periapsis: 827.153 km

RAAN: 210.9694 deg

Eccentricy: 0.00538067

Argument of periapsis: 302.2652 deg

Mean anomaly: 57.331 deg

Mean motion: 14.08027495 rev/day

Mean motion (dot): 0.0000002 rev/day2

B* drag term: 0.000004545576 1/REarth

Two-line elements (TLE)

Creation date: Aug. 30, 2025, 3:38 a.m.

Reference frame: TEME

Reference center: EARTH

Epoch: Aug. 29, 2025, 9:48 p.m. UTC

TLE line 0: 0 METEOR 1-14

TLE line 1: 1 06392U 73015A 25241.90896280 .00000020 00000-0 45456-5 0 9993

TLE line 2: 2 06392 81.2341 210.9694 0053807 302.2652 57.3310 14.08027495691707

Live tracking on map

Real-time ground track for satellite METEOR 1-14.

In-orbit conjunctions

A list of the most updated potential collisions computed for object METEOR 1-14.

Target Orbit TCA Probability of collision Miss distance Type
COSMOS 1375 DEB LEO 2025-07-05 06:25:23 0.001436476 115.0 (m) DEBRIS
THORAD AGENA D DEB SSO 2025-06-03 05:40:53 0.0001221936 765.0 (m) DEBRIS
FENGYUN 1C DEB SSO 2024-12-31 16:55:21 0.0001474899 120.0 (m) DEBRIS
SCOUT G-1 DEB LEO 2024-11-18 14:50:07 0.0001560188 282.0 (m) DEBRIS
FENGYUN 1C DEB SSO 2024-10-30 01:29:01 0.000132915 210.0 (m) DEBRIS

Associated space launch

The Meteor-1 series was the first series of Soviet meteorological satellites.

METEOR 1-14 was lifted into orbit during the mission ‘Vostok 8A92M | Meteor-1 14 (29L)’, on board a Vostok 8A92M space rocket.

The launch took place on March 20, 1973, 11:20 a.m. from 41/1.

For more information about the launch, click the button.

Launch to space Vostok 8A92M | Meteor-1 14 (29L)
Vostok 8A92M | Meteor-1 14 (29L)

Agency: N/A

Status: Launch Successful

Launch date: March 20, 1973, 11:20 a.m. UTC

Rocket: Vostok 8A92M

Launch pad: 41/1

Location: Plesetsk Cosmodrome, Russian Federation

...

Latest news about this satellite

There are no fresh news available about this satellite. Check back as we update our databases every day.


Newsletter sign-up

Weekly statistics, charts and insights to help you stay on top of the space industry.